Wisconsin Dells, Wisconsin, United States (53965)
Lat: 43.63N, Lon: 89.77W
Wx Zone: WIZ057
Local Info
Past Weather Observations for Today

NOTE: This archive is for the closest National Weather Service station to Wisconsin Dells. Information may differ from the station used for current weather conditions.

Click here for Long-term Archive

Time Weather Temperature Dewpoint Humidity Pressure Winds Precip Visibility
21:10
Overcast
36°F / 2°C 30°F / -1°C 81% 29.92 in
(1013 mb)
S 15 mph
(S 24 kph)
- 7SM
20:50
Overcast
36°F / 2°C 30°F / -1°C 81% 29.92 in
(1013 mb)
SSE 19.6 mph
(SSE 32 kph)
- 7SM
20:30
Overcast
36°F / 2°C 32°F / 0°C 87% 29.92 in
(1013 mb)
S 15 mph
(S 24 kph)
- 7SM
20:10
Overcast
36°F / 2°C 32°F / 0°C 87% 29.92 in
(1013 mb)
S 17.3 mph
(S 28 kph)
- 7SM
19:50
Overcast
36°F / 2°C 32°F / 0°C 87% 29.92 in
(1013 mb)
S 21.9 mph
(S 35 kph)
- 7SM
19:30
Overcast
36°F / 2°C 32°F / 0°C 87% 29.92 in
(1013 mb)
S 15 mph
(S 24 kph)
- 7SM
19:10
Overcast
36°F / 2°C 32°F / 0°C 87% 29.95 in
(1014 mb)
S 15 mph
(S 24 kph)
- 7SM
18:50
Overcast
Fog And Mist
36°F / 2°C 32°F / 0°C 87% 29.95 in
(1014 mb)
S 15 mph
(S 24 kph)
- 5SM
18:30
Overcast
Fog And Mist
36°F / 2°C 32°F / 0°C 87% 29.92 in
(1013 mb)
SSE 18.4 mph
(SSE 30 kph)
- 5SM
18:10
Overcast
Fog And Mist
36°F / 2°C 32°F / 0°C 87% 29.95 in
(1014 mb)
S 13.8 mph
(S 22 kph)
- 4SM
17:50
Overcast
Fog And Mist
36°F / 2°C 32°F / 0°C 87% 29.95 in
(1014 mb)
S 17.3 mph
(S 28 kph)
- 3SM
17:30
Overcast
Fog And Mist
36°F / 2°C 32°F / 0°C 87% 29.95 in
(1014 mb)
S 16.1 mph
(S 26 kph)
- 4SM
17:10
Overcast
Fog And Mist
36°F / 2°C 32°F / 0°C 87% 29.95 in
(1014 mb)
S 16.1 mph
(S 26 kph)
- 4SM
16:50
Overcast
Fog And Mist
36°F / 2°C 32°F / 0°C 87% 29.95 in
(1014 mb)
S 12.7 mph
(S 20 kph)
- 3SM
16:30
Overcast
Fog And Mist
36°F / 2°C 32°F / 0°C 87% 29.95 in
(1014 mb)
S 13.8 mph
(S 22 kph)
- 4SM
16:10
Overcast
Fog And Mist
36°F / 2°C 32°F / 0°C 87% 29.95 in
(1014 mb)
S 10.4 mph
(S 17 kph)
- 4SM
15:50
Overcast
Fog And Mist
36°F / 2°C 32°F / 0°C 87% 29.95 in
(1014 mb)
S 11.5 mph
(S 19 kph)
- 4SM
15:30
Overcast
Fog And Mist
36°F / 2°C 32°F / 0°C 87% 29.95 in
(1014 mb)
S 9.2 mph
(S 15 kph)
- 5SM
15:10
Overcast
Fog And Mist
36°F / 2°C 32°F / 0°C 87% 29.95 in
(1014 mb)
S 13.8 mph
(S 22 kph)
- 5SM
14:50
Overcast
Fog And Mist
36°F / 2°C 32°F / 0°C 87% 29.95 in
(1014 mb)
S 9.2 mph
(S 15 kph)
- 5SM
14:30
Overcast
36°F / 2°C 32°F / 0°C 87% 29.95 in
(1014 mb)
S 12.7 mph
(S 20 kph)
- 7SM
14:10
Overcast
Fog And Mist
36°F / 2°C 32°F / 0°C 87% 29.95 in
(1014 mb)
S 12.7 mph
(S 20 kph)
- 5SM
13:50
Overcast
Fog And Mist
36°F / 2°C 32°F / 0°C 87% 29.95 in
(1014 mb)
S 10.4 mph
(S 17 kph)
- 5SM
13:30
Overcast
Fog And Mist
36°F / 2°C 32°F / 0°C 87% 29.98 in
(1015 mb)
S 13.8 mph
(S 22 kph)
- 5SM
13:10
Overcast
Fog And Mist
36°F / 2°C 32°F / 0°C 87% 29.98 in
(1015 mb)
S 15 mph
(S 24 kph)
- 4SM
12:50
Overcast
Fog And Mist
36°F / 2°C 32°F / 0°C 87% 29.98 in
(1015 mb)
S 13.8 mph
(S 22 kph)
- 5SM
12:30
Overcast
Fog And Mist
36°F / 2°C 32°F / 0°C 87% 29.98 in
(1015 mb)
S 13.8 mph
(S 22 kph)
- 4SM
12:10
Overcast
Fog And Mist
36°F / 2°C 32°F / 0°C 87% 30.01 in
(1016 mb)
S 15 mph
(S 24 kph)
- 4SM
11:50
Overcast
Fog And Mist
36°F / 2°C 32°F / 0°C 87% 30.01 in
(1016 mb)
S 11.5 mph
(S 19 kph)
- 4SM
11:30
Overcast
Fog And Mist
36°F / 2°C 32°F / 0°C 87% 30.04 in
(1017 mb)
S 10.4 mph
(S 17 kph)
- 4SM
11:10
Overcast
Fog And Mist
34°F / 1°C 32°F / 0°C 93% 30.04 in
(1017 mb)
S 13.8 mph
(S 22 kph)
- 3SM
10:50
Overcast
Fog And Mist
34°F / 1°C 32°F / 0°C 93% 30.04 in
(1017 mb)
S 13.8 mph
(S 22 kph)
- 3SM
10:30
Overcast
Fog And Mist
34°F / 1°C 32°F / 0°C 93% 30.04 in
(1017 mb)
S 15 mph
(S 24 kph)
- 2 1/2SM
10:10
Overcast
Fog And Mist
34°F / 1°C 32°F / 0°C 93% 30.06 in
(1018 mb)
S 12.7 mph
(S 20 kph)
- 2SM
09:50
Overcast
Fog And Mist
34°F / 1°C 32°F / 0°C 93% 30.06 in
(1018 mb)
S 12.7 mph
(S 20 kph)
- 2SM
09:30
Overcast
Fog And Mist
32°F / 0°C 32°F / 0°C 100% 30.06 in
(1018 mb)
S 9.2 mph
(S 15 kph)
- 2SM
09:10
Overcast
Fog And Mist
32°F / 0°C 32°F / 0°C 100% 30.06 in
(1018 mb)
S 9.2 mph
(S 15 kph)
- 2SM
08:50
Overcast
Fog And Mist
32°F / 0°C 32°F / 0°C 100% 30.06 in
(1018 mb)
S 8.1 mph
(S 13 kph)
- 1 3/4SM
08:30
Overcast
Fog And Mist
32°F / 0°C 32°F / 0°C 100% 30.06 in
(1018 mb)
S 6.9 mph
(S 11 kph)
- 1 1/2SM
08:10
Overcast
Fog And Mist
32°F / 0°C 32°F / 0°C 100% 30.06 in
(1018 mb)
SSE 5.8 mph
(SSE 9 kph)
- 1 1/2SM
07:50
Overcast
Fog And Mist
32°F / 0°C 30°F / -1°C 93% 30.06 in
(1018 mb)
S 6.9 mph
(S 11 kph)
- 1 1/2SM
07:30
Overcast
Fog And Mist
32°F / 0°C 30°F / -1°C 93% 30.09 in
(1019 mb)
S 5.8 mph
(S 9 kph)
- 1 1/2SM
07:10
Overcast
Fog And Mist
32°F / 0°C 30°F / -1°C 93% 30.09 in
(1019 mb)
SSE 4.6 mph
(SSE 7 kph)
- 1 1/4SM
06:50
Overcast
Fog And Mist
32°F / 0°C 30°F / -1°C 93% 30.09 in
(1019 mb)
SSE 8.1 mph
(SSE 13 kph)
- 1 1/4SM
06:30
Overcast
Fog And Mist
32°F / 0°C 30°F / -1°C 93% 30.09 in
(1019 mb)
SSE 8.1 mph
(SSE 13 kph)
- 1SM
06:10
Overcast
Fog And Mist
30°F / -1°C 30°F / -1°C 100% 30.09 in
(1019 mb)
SSE 6.9 mph
(SSE 11 kph)
- 1 1/4SM
05:50
Overcast
Fog And Mist
30°F / -1°C 30°F / -1°C 100% 30.09 in
(1019 mb)
SSE 5.8 mph
(SSE 9 kph)
- 1 1/2SM
05:30
Overcast
Fog And Mist
30°F / -1°C 28°F / -2°C 93% 30.09 in
(1019 mb)
SSE 6.9 mph
(SSE 11 kph)
- 1 3/4SM
05:10
Overcast
Fog And Mist
30°F / -1°C 28°F / -2°C 93% 30.12 in
(1020 mb)
SSE 6.9 mph
(SSE 11 kph)
- 1 3/4SM
04:50
Overcast
Fog And Mist
30°F / -1°C 28°F / -2°C 93% 30.12 in
(1020 mb)
SSE 4.6 mph
(SSE 7 kph)
- 1 3/4SM
04:30
Overcast
Fog And Mist
30°F / -1°C 28°F / -2°C 93% 30.12 in
(1020 mb)
SSE 4.6 mph
(SSE 7 kph)
- 1 3/4SM
04:10
Overcast
Fog And Mist
30°F / -1°C 28°F / -2°C 93% 30.12 in
(1020 mb)
S 5.8 mph
(S 9 kph)
- 2SM
03:50
Overcast
Fog And Mist
30°F / -1°C 28°F / -2°C 93% 30.12 in
(1020 mb)
S 3.5 mph
(S 6 kph)
- 2SM
03:30
Overcast
Fog And Mist
30°F / -1°C 27°F / -3°C 86% 30.12 in
(1020 mb)
SSE 4.6 mph
(SSE 7 kph)
- 2SM
03:10
Overcast
Fog And Mist
30°F / -1°C 27°F / -3°C 86% 30.12 in
(1020 mb)
SSE 5.8 mph
(SSE 9 kph)
- 2 1/2SM
02:50
Overcast
Fog And Mist
30°F / -1°C 27°F / -3°C 86% 30.15 in
(1021 mb)
SSE 6.9 mph
(SSE 11 kph)
- 2 1/2SM
02:30
Overcast
Fog And Mist
30°F / -1°C 27°F / -3°C 86% 30.15 in
(1021 mb)
SSE 5.8 mph
(SSE 9 kph)
- 2 1/2SM
02:10
Overcast
Fog And Mist
30°F / -1°C 27°F / -3°C 86% 30.15 in
(1021 mb)
S 6.9 mph
(S 11 kph)
- 3SM
01:50
Overcast
Fog And Mist
30°F / -1°C 27°F / -3°C 86% 30.15 in
(1021 mb)
SSE 5.8 mph
(SSE 9 kph)
- 3SM
01:30
Overcast
Fog And Mist
30°F / -1°C 27°F / -3°C 86% 30.15 in
(1021 mb)
S 5.8 mph
(S 9 kph)
- 3SM
01:10
Overcast
Fog And Mist
30°F / -1°C 27°F / -3°C 86% 30.15 in
(1021 mb)
S 5.8 mph
(S 9 kph)
- 3SM
00:50
Overcast
Fog And Mist
30°F / -1°C 27°F / -3°C 86% 30.15 in
(1021 mb)
S 6.9 mph
(S 11 kph)
- 4SM
00:30
Overcast
Fog And Mist
30°F / -1°C 27°F / -3°C 86% 30.15 in
(1021 mb)
S 5.8 mph
(S 9 kph)
- 5SM
00:10
Overcast
Fog And Mist
30°F / -1°C 27°F / -3°C 86% 30.15 in
(1021 mb)
S 9.2 mph
(S 15 kph)
- 5SM
Time Weather Temperature Dewpoint Humidity Pressure Winds Precip Visibility


Weather for websites

WeatherForYou.com, LLC is not responsible for any damages or problems caused by this service. Current weather conditions are obtained from the closest station including government and personal stations which may have varying degrees of accuracy. Weather forecasts are derived from the NOAA NDFD. Like all things, this site belongs to Jesus Christ... He just trusts me to maintain it. If you have any questions or comments email webmaster@weatherforyou.com

Copyright © 2014, WeatherForYou.com LLC. All rights reserved.